Location: Livorno
(43.5500°N, 10.3170°E)
Time: 19:55:10
(UTC+02:00)

ISS - Pass Details

Date: 17 May 2026
Orbit: 415 x 423 km, 51.6° (Epoch: 10 June)

Event Time Altitude Azimuth Distance (km) Brightness Sun altitude
Rises 00:00:53 0° 304° (WNW) 2,357 0.8 -24.9°
Reaches altitude 10° 00:03:02 10° 310° (NW) 1,493 -0.2 -25.0°
Enters shadow 00:05:09 32° 334° (NNW) 747 -1.9 -25.2°
